Terminal Aerodrome Forecast
Issued by NWS

Home | Current Version | Previous Version | Text Only | Print | Product List | Glossary On
Versions: 1 2 3 4 5 6 7 8 9 10 11 12 13 14 15 16 17 18
000
FTUS45 KTFX 270525
TAFBZN
TAF
KBZN 270525Z 2706/2806 VRB05KT P6SM SCT030 OVC060
     FM270900 VRB03KT P6SM VCFG FEW010 SCT070
      TEMPO 2710/2714 2SM BR BKN008
     FM271600 VRB05KT P6SM SKC=

USA.gov is the U.S. government's official web portal to all federal, state and local government web resources and services.